User: anonymous   Login
Location: Newsoms
(36.6240°N, 77.1250°W)
Time: 12:29:18
(UTC-04:00)
Language:

BREEZE-M DEB (TANK) - Orbit

View from above orbital plane
View from above orbital plane
View from above satellite
View from above satellite

Ground track
Ground track

The orbit data is extracted from the following two-line orbital elements,

1 29649U 06056B   18113.63537021  .00002704  00000-0  44208-3 0  9992
2 29649  49.5382   5.8825 5383292 355.8704   1.0951  5.00601322203296
Epoch (UTC): 23 April 2018 15:14:55
Eccentricity: 0.5383292
inclination: 49.5382°
perigee height: 286 km
apogee height: 15827 km
right ascension of ascending node: 5.8825°
argument of perigee: 355.8704°
revolutions per day: 5.00601322
mean anomaly at epoch: 1.0951°
orbit number at epoch: 20329

The dashed part of the orbit path shows where the satellite is in the earth's shadow,  

DLR